GLO1461 SBGL-SBGR

Flight info

Callsign GLO1461
Flight time 0h 50m
Altitude 32000
Route SIDUR UZ10 EDMUS
Aircraft B38M/M-DFGHIJ4J7KLORWXY/LB1

Departure

Time 2026-05-04 14:44
Airport Rio Galeão – Tom Jobim International Airport (SBGL)

Arrival

Time 2026-05-04 15:34
Airport São Paulo/Guarulhos–Governor André Franco Montoro International Airport (SBGR)
Time Latitude Longitude Altitude Speed Heading
2026-05-04 14:29 -22.81106 -43.25321 29 ft 0 kts 76°
2026-05-04 14:37 -22.81106 -43.25323 29 ft 2 kts 76°
2026-05-04 14:37 -22.81114 -43.25348 29 ft 4 kts 58°
2026-05-04 14:37 -22.81132 -43.25367 29 ft 4 kts 20°
2026-05-04 14:37 -22.81149 -43.25369 29 ft 0 kts 346°
2026-05-04 14:40 -22.81145 -43.25370 29 ft 2 kts 346°
2026-05-04 14:40 -22.81102 -43.25381 29 ft 12 kts 350°
2026-05-04 14:41 -22.80989 -43.25385 29 ft 18 kts 346°
2026-05-04 14:41 -22.80915 -43.25500 29 ft 20 kts 296°
2026-05-04 14:41 -22.80762 -43.25676 29 ft 16 kts 18°
2026-05-04 14:42 -22.80569 -43.25536 29 ft 15 kts 20°
2026-05-04 14:42 -22.80471 -43.25573 29 ft 16 kts 329°
2026-05-04 14:42 -22.80360 -43.25601 29 ft 18 kts 23°
2026-05-04 14:43 -22.80256 -43.25516 29 ft 20 kts 37°
2026-05-04 14:43 -22.80161 -43.25424 29 ft 17 kts 71°
2026-05-04 14:43 -22.80115 -43.25249 29 ft 46 kts 74°
2026-05-04 14:43 -22.79972 -43.24695 29 ft 104 kts 74°
2026-05-04 14:44 -22.79731 -43.23769 29 ft 149 kts 74°
2026-05-04 14:44 -22.79407 -43.22598 257 ft 165 kts 73°
2026-05-04 14:44 -22.79092 -43.21402 843 ft 168 kts 78°
2026-05-04 14:44 -22.78843 -43.20163 1428 ft 168 kts 78°
2026-05-04 14:45 -22.78582 -43.18884 1922 ft 183 kts 78°
2026-05-04 14:45 -22.78289 -43.17462 2336 ft 205 kts 78°
2026-05-04 14:45 -22.77952 -43.15842 2675 ft 235 kts 77°
2026-05-04 14:45 -22.77573 -43.14039 3198 ft 254 kts 77°
2026-05-04 14:46 -22.76980 -43.12238 3962 ft 260 kts 57°
2026-05-04 14:46 -22.75657 -43.10866 4845 ft 266 kts 29°
2026-05-04 14:46 -22.73903 -43.10328 5691 ft 270 kts
2026-05-04 14:46 -22.72053 -43.10710 6518 ft 275 kts 335°
2026-05-04 14:47 -22.70470 -43.11901 7348 ft 279 kts 322°
2026-05-04 14:47 -22.68930 -43.13206 8161 ft 282 kts 322°
2026-05-04 14:47 -22.67381 -43.14526 9002 ft 284 kts 322°
2026-05-04 14:47 -22.65821 -43.15863 9835 ft 287 kts 321°
2026-05-04 14:48 -22.64245 -43.17219 10566 ft 294 kts 321°
2026-05-04 14:48 -22.62614 -43.18624 10928 ft 313 kts 320°
2026-05-04 14:48 -22.60870 -43.20128 11393 ft 327 kts 320°
2026-05-04 14:48 -22.59064 -43.21684 12078 ft 333 kts 320°
2026-05-04 14:49 -22.57238 -43.23260 12847 ft 337 kts 320°
2026-05-04 14:49 -22.55529 -43.24990 13591 ft 338 kts 305°
2026-05-04 14:49 -22.54480 -43.27246 14380 ft 337 kts 283°
2026-05-04 14:49 -22.54280 -43.29759 15155 ft 337 kts 263°
2026-05-04 14:50 -22.54753 -43.32250 15925 ft 340 kts 256°
2026-05-04 14:50 -22.55302 -43.34741 16687 ft 342 kts 256°
2026-05-04 14:50 -22.55869 -43.37245 17420 ft 344 kts 256°
2026-05-04 14:50 -22.56450 -43.39767 18149 ft 345 kts 255°
2026-05-04 14:51 -22.57036 -43.42290 18850 ft 347 kts 255°
2026-05-04 14:51 -22.57631 -43.44838 19489 ft 350 kts 256°
2026-05-04 14:51 -22.58223 -43.47374 20072 ft 353 kts 256°
2026-05-04 14:51 -22.58824 -43.49942 20718 ft 353 kts 256°
2026-05-04 14:52 -22.59430 -43.52535 21270 ft 357 kts 256°
2026-05-04 14:52 -22.60041 -43.55151 21856 ft 359 kts 256°
2026-05-04 14:52 -22.60654 -43.57778 22427 ft 362 kts 256°
2026-05-04 14:52 -22.61271 -43.60426 22971 ft 364 kts 257°
2026-05-04 14:53 -22.61893 -43.63089 23490 ft 365 kts 257°
2026-05-04 14:53 -22.62517 -43.65773 24001 ft 368 kts 257°
2026-05-04 14:53 -22.63145 -43.68471 24509 ft 370 kts 257°
2026-05-04 14:53 -22.63775 -43.71184 25022 ft 372 kts 257°
2026-05-04 14:54 -22.64399 -43.73870 25550 ft 372 kts 257°
2026-05-04 14:54 -22.65032 -43.76596 26043 ft 374 kts 257°
2026-05-04 14:54 -22.65664 -43.79322 26523 ft 375 kts 258°
2026-05-04 14:54 -22.66299 -43.82066 26970 ft 376 kts 258°
2026-05-04 14:55 -22.66936 -43.84819 27397 ft 377 kts 258°
2026-05-04 14:55 -22.67573 -43.87573 27860 ft 377 kts 258°
2026-05-04 14:55 -22.68212 -43.90334 28277 ft 379 kts 258°
2026-05-04 14:55 -22.68851 -43.93104 28720 ft 379 kts 258°
2026-05-04 14:56 -22.69490 -43.95874 29137 ft 380 kts 258°
2026-05-04 14:56 -22.70131 -43.98654 29517 ft 381 kts 258°
2026-05-04 14:56 -22.70773 -44.01442 29924 ft 381 kts 258°
2026-05-04 14:56 -22.71416 -44.04235 30305 ft 383 kts 258°
2026-05-04 14:57 -22.72061 -44.07041 30642 ft 385 kts 258°
2026-05-04 14:57 -22.72702 -44.09829 31000 ft 387 kts 258°
2026-05-04 14:57 -22.73352 -44.12665 31333 ft 389 kts 258°
2026-05-04 14:57 -22.74007 -44.15517 31627 ft 391 kts 258°
2026-05-04 14:58 -22.74662 -44.18373 31936 ft 392 kts 258°
2026-05-04 14:58 -22.75401 -44.21224 32144 ft 396 kts 251°
2026-05-04 14:58 -22.76751 -44.23794 32251 ft 391 kts 241°
2026-05-04 14:58 -22.78201 -44.26254 32224 ft 384 kts 242°
2026-05-04 14:59 -22.81081 -44.31101 32230 ft 381 kts 242°
2026-05-04 15:00 -22.85426 -44.38313 32223 ft 380 kts 242°
2026-05-04 15:00 -22.88323 -44.43115 32243 ft 380 kts 241°
2026-05-04 15:01 -22.92633 -44.50269 32239 ft 380 kts 241°
2026-05-04 15:01 -22.95520 -44.55065 32221 ft 379 kts 242°
2026-05-04 15:02 -22.98406 -44.59865 32226 ft 379 kts 242°
2026-05-04 15:02 -23.01289 -44.64662 32226 ft 379 kts 241°
2026-05-04 15:03 -23.03439 -44.69765 32236 ft 371 kts 258°
2026-05-04 15:03 -23.04750 -44.75201 32228 ft 372 kts 257°
2026-05-04 15:04 -23.06008 -44.80655 32235 ft 372 kts 258°
2026-05-04 15:04 -23.07238 -44.86110 32242 ft 371 kts 258°
2026-05-04 15:05 -23.08461 -44.91557 32236 ft 371 kts 258°
2026-05-04 15:05 -23.09681 -44.97009 32240 ft 371 kts 258°
2026-05-04 15:06 -23.10694 -45.01541 32240 ft 371 kts 258°
2026-05-04 15:06 -23.11306 -45.04277 32037 ft 376 kts 257°
2026-05-04 15:07 -23.12553 -45.09869 31153 ft 385 kts 256°
2026-05-04 15:07 -23.13187 -45.12714 30927 ft 389 kts 256°
2026-05-04 15:07 -23.13825 -45.15585 30605 ft 390 kts 256°
2026-05-04 15:07 -23.14462 -45.18447 30086 ft 387 kts 256°
2026-05-04 15:08 -23.15091 -45.21279 29494 ft 385 kts 256°
2026-05-04 15:08 -23.15717 -45.24102 28927 ft 384 kts 256°
2026-05-04 15:08 -23.16341 -45.26914 28379 ft 381 kts 256°
2026-05-04 15:08 -23.16952 -45.29677 27854 ft 379 kts 256°
2026-05-04 15:09 -23.17567 -45.32455 27319 ft 377 kts 256°
2026-05-04 15:09 -23.18178 -45.35216 26796 ft 375 kts 256°
2026-05-04 15:09 -23.18785 -45.37959 26262 ft 373 kts 256°
2026-05-04 15:10 -23.20003 -45.43451 25114 ft 372 kts 257°
2026-05-04 15:10 -23.20610 -45.46187 24566 ft 371 kts 257°
2026-05-04 15:10 -23.21818 -45.51645 23447 ft 371 kts 257°
2026-05-04 15:11 -23.22420 -45.54372 22873 ft 370 kts 257°
2026-05-04 15:11 -23.23133 -45.57071 22216 ft 372 kts 253°
2026-05-04 15:11 -23.23878 -45.59723 21679 ft 371 kts 253°
2026-05-04 15:11 -23.24622 -45.62411 21139 ft 370 kts 254°
2026-05-04 15:12 -23.25361 -45.65093 20583 ft 370 kts 254°
2026-05-04 15:12 -23.26098 -45.67777 20012 ft 370 kts 254°
2026-05-04 15:12 -23.26834 -45.70464 19441 ft 370 kts 253°
2026-05-04 15:12 -23.27566 -45.73137 18874 ft 369 kts 253°
2026-05-04 15:13 -23.28298 -45.75814 18308 ft 369 kts 253°
2026-05-04 15:13 -23.29029 -45.78483 17743 ft 369 kts 253°
2026-05-04 15:13 -23.29759 -45.81158 17177 ft 368 kts 253°
2026-05-04 15:13 -23.30489 -45.83831 16606 ft 368 kts 253°
2026-05-04 15:14 -23.31208 -45.86463 16056 ft 367 kts 253°
2026-05-04 15:14 -23.31943 -45.89161 15484 ft 367 kts 253°
2026-05-04 15:14 -23.32681 -45.91796 15190 ft 359 kts 253°
2026-05-04 15:14 -23.33400 -45.94324 14991 ft 350 kts 253°
2026-05-04 15:15 -23.34108 -45.96823 14797 ft 340 kts 253°
2026-05-04 15:15 -23.34794 -45.99248 14640 ft 331 kts 253°
2026-05-04 15:15 -23.35467 -46.01628 14474 ft 330 kts 253°
2026-05-04 15:16 -23.36816 -46.06402 14136 ft 329 kts 252°
2026-05-04 15:16 -23.37488 -46.08784 13973 ft 329 kts 252°
2026-05-04 15:16 -23.38827 -46.13535 13653 ft 328 kts 252°
2026-05-04 15:17 -23.39446 -46.15729 13494 ft 327 kts 252°
2026-05-04 15:17 -23.40777 -46.20461 13164 ft 326 kts 252°
2026-05-04 15:17 -23.41439 -46.22816 13006 ft 326 kts 252°
2026-05-04 15:18 -23.42102 -46.25175 12835 ft 325 kts 252°
2026-05-04 15:18 -23.42761 -46.27529 12670 ft 325 kts 253°
2026-05-04 15:18 -23.43017 -46.29957 12472 ft 325 kts 274°
2026-05-04 15:19 -23.41203 -46.34444 12169 ft 330 kts 300°
2026-05-04 15:19 -23.39962 -46.36547 11999 ft 331 kts 301°
2026-05-04 15:19 -23.37449 -46.40742 11668 ft 329 kts 301°
2026-05-04 15:20 -23.36196 -46.42820 11503 ft 328 kts 301°
2026-05-04 15:20 -23.34955 -46.44876 11338 ft 320 kts 301°
2026-05-04 15:20 -23.33757 -46.46856 11288 ft 309 kts 301°
2026-05-04 15:20 -23.32605 -46.48765 11076 ft 302 kts 301°
2026-05-04 15:21 -23.31457 -46.50661 10887 ft 295 kts 302°
2026-05-04 15:21 -23.30343 -46.52503 10728 ft 288 kts 302°
2026-05-04 15:21 -23.28204 -46.56037 10453 ft 274 kts 302°
2026-05-04 15:22 -23.27154 -46.57770 10313 ft 275 kts 302°
2026-05-04 15:22 -23.26232 -46.59573 10128 ft 273 kts 290°
2026-05-04 15:22 -23.25035 -46.63484 9725 ft 271 kts 288°
2026-05-04 15:23 -23.24444 -46.65406 9516 ft 271 kts 289°
2026-05-04 15:23 -23.23845 -46.67345 9297 ft 270 kts 289°
2026-05-04 15:23 -23.23481 -46.69333 9041 ft 271 kts 269°
2026-05-04 15:23 -23.23770 -46.71359 8835 ft 271 kts 262°
2026-05-04 15:24 -23.24467 -46.75384 8408 ft 271 kts 261°
2026-05-04 15:24 -23.25286 -46.79408 7773 ft 275 kts 248°
2026-05-04 15:25 -23.26386 -46.81124 7455 ft 277 kts 230°
2026-05-04 15:25 -23.27647 -46.82690 7207 ft 274 kts 231°
2026-05-04 15:25 -23.28982 -46.84152 7016 ft 273 kts 216°
2026-05-04 15:26 -23.30721 -46.84935 6873 ft 276 kts 188°
2026-05-04 15:26 -23.33909 -46.84136 6722 ft 277 kts 143°
2026-05-04 15:27 -23.35223 -46.82625 6635 ft 274 kts 123°
2026-05-04 15:27 -23.37288 -46.79340 6441 ft 255 kts 122°
2026-05-04 15:28 -23.39182 -46.76264 6327 ft 233 kts 122°
2026-05-04 15:28 -23.40065 -46.74815 6242 ft 229 kts 122°
2026-05-04 15:28 -23.41822 -46.71927 6025 ft 228 kts 122°
2026-05-04 15:29 -23.42940 -46.70745 5892 ft 229 kts 152°
2026-05-04 15:30 -23.48194 -46.67879 5399 ft 207 kts 109°
2026-05-04 15:30 -23.47880 -46.63345 5118 ft 203 kts 72°
2026-05-04 15:31 -23.47100 -46.60517 4676 ft 178 kts 72°
2026-05-04 15:31 -23.46768 -46.59299 4466 ft 160 kts 73°
2026-05-04 15:32 -23.45833 -46.55871 3839 ft 157 kts 73°
2026-05-04 15:32 -23.45214 -46.53596 3432 ft 156 kts 73°
2026-05-04 15:33 -23.44607 -46.51366 3020 ft 152 kts 74°
2026-05-04 15:34 -23.43708 -46.48070 2467 ft 140 kts 76°
2026-05-04 15:34 -23.43476 -46.47204 2466 ft 101 kts 73°
2026-05-04 15:34 -23.43224 -46.46382 2472 ft 29 kts 54°
2026-05-04 15:35 -23.43038 -46.46175 2465 ft 19 kts 41°
2026-05-04 15:35 -23.42912 -46.46151 2464 ft 20 kts 344°
2026-05-04 15:35 -23.42777 -46.46193 2466 ft 19 kts 343°
2026-05-04 15:36 -23.42633 -46.46358 2463 ft 20 kts 252°
2026-05-04 15:36 -23.42676 -46.46504 2463 ft 21 kts 253°
2026-05-04 15:36 -23.42719 -46.46659 2467 ft 21 kts 252°
2026-05-04 15:37 -23.42761 -46.46816 2466 ft 22 kts 253°
2026-05-04 15:37 -23.42804 -46.46979 2472 ft 22 kts 253°
2026-05-04 15:37 -23.42842 -46.47124 2469 ft 18 kts 254°
2026-05-04 15:37 -23.42878 -46.47263 2467 ft 21 kts 254°
2026-05-04 15:38 -23.42919 -46.47421 2466 ft 22 kts 254°
2026-05-04 15:38 -23.42965 -46.47583 2466 ft 24 kts 253°
2026-05-04 15:38 -23.43010 -46.47744 2467 ft 15 kts 253°
2026-05-04 15:38 -23.42986 -46.47818 2469 ft 12 kts 337°
2026-05-04 15:39 -23.42902 -46.47835 2472 ft 13 kts 347°
2026-05-04 15:39 -23.42835 -46.47878 2470 ft 11 kts 300°
2026-05-04 15:39 -23.42836 -46.47945 2467 ft 0 kts 264°